Orbital Elements at Epoch 2459000.5 (2020-May-31.0) TDB
Reference: JPL 19 (heliocentric ecliptic J2000)
Element | Value | Uncertainty (1-sigma) | Units |
e | .1135436024824632 | 4.7826e-08 | |
a | 2.322038915675454 | 1.0458e-08 | au |
q | 2.058386252085191 | 1.1497e-07 | au |
i | 21.63602841380709 | 6.0337e-06 | deg |
node | 238.3622628073945 | 1.1078e-05 | deg |
peri | 218.3951939204078 | 2.9621e-05 | deg |
M | 15.45787539211143 | 2.6417e-05 | deg |
tp | 2458945.005496644434 (2020-Apr-05.50549664) | 9.4752e-05 | TDB |
period | 1292.417017295857 3.54 | 8.731e-06 2.39e-08 | d yr |
n | .2785478643365693 | 1.8817e-09 | deg/d |
Q | 2.585691579265718 | 1.1645e-08 | au |
|
| | Orbit Determination Parameters
Additional Information
|